contact:dominique.lefevre@mio.osupytheas.fr, maurice.libes@osupytheas.fr, didier.mallarino@osupytheas.fr
Project:EMSO http://www.emso-fr.org/EMSO-France
Depth: 2436.0 m
Title:EMSO Ligure Ouest : Data MII capteur MICROCAT
DateTime_Computer,Latitude,Longitude,Temperature,Conductivity,Pressure,DateTime_Instrument
DateTime_Computer,Latitude,Longitude,degC,S m-1,dbar,DateTime_Instrument
2017-10-08T00:00:52Z,42.805,6.029,13.2938,4.59963,2471.912,2017-10-08T02:02:16Z
2017-10-08T00:02:27Z,42.805,6.029,13.2939,4.59963,2471.934,2017-10-08T02:03:51Z
2017-10-08T00:04:01Z,42.805,6.029,13.2937,4.59964,2471.934,2017-10-08T02:05:25Z
2017-10-08T00:05:36Z,42.805,6.029,13.2935,4.59964,2471.912,2017-10-08T02:07:00Z
2017-10-08T00:07:11Z,42.805,6.029,13.2939,4.59963,2471.912,2017-10-08T02:08:35Z
2017-10-08T00:08:46Z,42.805,6.029,13.2939,4.59964,2471.919,2017-10-08T02:10:10Z
2017-10-08T00:10:21Z,42.805,6.029,13.2940,4.59964,2471.919,2017-10-08T02:11:45Z
2017-10-08T00:11:56Z,42.805,6.029,13.2939,4.59963,2471.934,2017-10-08T02:13:20Z
2017-10-08T00:13:30Z,42.805,6.029,13.2939,4.59965,2471.912,2017-10-08T02:14:54Z
2017-10-08T00:15:05Z,42.805,6.029,13.2942,4.59963,2471.934,2017-10-08T02:16:29Z
2017-10-08T00:16:40Z,42.805,6.029,13.2939,4.59963,2471.934,2017-10-08T02:18:04Z
2017-10-08T00:18:15Z,42.805,6.029,13.2939,4.59964,2471.897,2017-10-08T02:19:39Z
2017-10-08T00:19:50Z,42.805,6.029,13.2940,4.59964,2471.912,2017-10-08T02:21:14Z
2017-10-08T00:21:25Z,42.805,6.029,13.2937,4.59963,2471.919,2017-10-08T02:22:49Z
2017-10-08T00:22:59Z,42.805,6.029,13.2940,4.59964,2471.897,2017-10-08T02:24:23Z
2017-10-08T00:24:34Z,42.805,6.029,13.2935,4.59964,2471.934,2017-10-08T02:25:58Z
2017-10-08T00:26:09Z,42.805,6.029,13.2937,4.59965,2471.934,2017-10-08T02:27:33Z
2017-10-08T00:27:44Z,42.805,6.029,13.2937,4.59964,2471.889,2017-10-08T02:29:08Z
2017-10-08T00:29:19Z,42.805,6.029,13.2945,4.59965,2471.912,2017-10-08T02:30:43Z
2017-10-08T00:30:54Z,42.805,6.029,13.2938,4.59963,2471.874,2017-10-08T02:32:18Z
2017-10-08T00:32:28Z,42.805,6.029,13.2937,4.59962,2471.912,2017-10-08T02:33:52Z
2017-10-08T00:34:03Z,42.805,6.029,13.2941,4.59962,2471.912,2017-10-08T02:35:27Z
2017-10-08T00:35:38Z,42.805,6.029,13.2941,4.59963,2471.897,2017-10-08T02:37:02Z
2017-10-08T00:37:13Z,42.805,6.029,13.2940,4.59964,2471.897,2017-10-08T02:38:37Z
2017-10-08T00:38:48Z,42.805,6.029,13.2937,4.59964,2471.866,2017-10-08T02:40:12Z
2017-10-08T00:40:23Z,42.805,6.029,13.2941,4.59962,2471.934,2017-10-08T02:41:47Z
2017-10-08T00:41:57Z,42.805,6.029,13.2938,4.59963,2471.866,2017-10-08T02:43:21Z
2017-10-08T00:43:32Z,42.805,6.029,13.2938,4.59964,2471.889,2017-10-08T02:44:56Z
2017-10-08T00:45:07Z,42.805,6.029,13.2934,4.59963,2471.852,2017-10-08T02:46:31Z
2017-10-08T00:46:42Z,42.805,6.029,13.2935,4.59967,2471.897,2017-10-08T02:48:06Z
2017-10-08T00:48:17Z,42.805,6.029,13.2935,4.59963,2471.874,2017-10-08T02:49:41Z
2017-10-08T00:49:52Z,42.805,6.029,13.2939,4.59966,2471.897,2017-10-08T02:51:16Z
2017-10-08T00:51:26Z,42.805,6.029,13.2938,4.59967,2471.897,2017-10-08T02:52:50Z
2017-10-08T00:53:01Z,42.805,6.029,13.2941,4.59963,2471.889,2017-10-08T02:54:25Z
2017-10-08T00:54:36Z,42.805,6.029,13.2939,4.59966,2471.912,2017-10-08T02:56:00Z
2017-10-08T00:56:11Z,42.805,6.029,13.2936,4.59962,2471.866,2017-10-08T02:57:35Z
2017-10-08T00:57:46Z,42.805,6.029,13.2935,4.59964,2471.897,2017-10-08T02:59:10Z
2017-10-08T00:59:21Z,42.805,6.029,13.2943,4.59964,2471.874,2017-10-08T03:00:45Z
2017-10-08T01:00:55Z,42.805,6.029,13.2941,4.59965,2471.889,2017-10-08T03:02:19Z
2017-10-08T01:02:30Z,42.805,6.029,13.2940,4.59964,2471.852,2017-10-08T03:03:54Z
2017-10-08T01:04:05Z,42.805,6.029,13.2940,4.59966,2471.874,2017-10-08T03:05:29Z
2017-10-08T01:05:40Z,42.805,6.029,13.2934,4.59964,2471.912,2017-10-08T03:07:04Z
2017-10-08T01:07:15Z,42.805,6.029,13.2940,4.59964,2471.874,2017-10-08T03:08:39Z
2017-10-08T01:08:49Z,42.805,6.029,13.2943,4.59964,2471.852,2017-10-08T03:10:13Z
2017-10-08T01:10:24Z,42.805,6.029,13.2937,4.59964,2471.889,2017-10-08T03:11:48Z
2017-10-08T01:11:59Z,42.805,6.029,13.2939,4.59962,2471.889,2017-10-08T03:13:23Z
2017-10-08T01:13:34Z,42.805,6.029,13.2936,4.59967,2471.852,2017-10-08T03:14:58Z
2017-10-08T01:15:09Z,42.805,6.029,13.2939,4.59961,2471.874,2017-10-08T03:16:33Z
2017-10-08T01:16:44Z,42.805,6.029,13.2936,4.59962,2471.852,2017-10-08T03:18:08Z
2017-10-08T01:18:18Z,42.805,6.029,13.2938,4.59963,2471.866,2017-10-08T03:19:42Z
2017-10-08T01:19:53Z,42.805,6.029,13.2936,4.59964,2471.866,2017-10-08T03:21:17Z
2017-10-08T01:21:28Z,42.805,6.029,13.2939,4.59963,2471.866,2017-10-08T03:22:52Z
2017-10-08T01:23:03Z,42.805,6.029,13.2940,4.59963,2471.852,2017-10-08T03:24:27Z
2017-10-08T01:24:38Z,42.805,6.029,13.2937,4.59963,2471.866,2017-10-08T03:26:02Z
2017-10-08T01:26:13Z,42.805,6.029,13.2933,4.59964,2471.889,2017-10-08T03:27:37Z
2017-10-08T01:27:47Z,42.805,6.029,13.2943,4.59962,2471.874,2017-10-08T03:29:11Z
2017-10-08T01:29:22Z,42.805,6.029,13.2938,4.59964,2471.866,2017-10-08T03:30:46Z
2017-10-08T01:30:57Z,42.805,6.029,13.2938,4.59964,2471.844,2017-10-08T03:32:21Z
2017-10-08T01:32:32Z,42.805,6.029,13.2939,4.59963,2471.829,2017-10-08T03:33:56Z
2017-10-08T01:34:07Z,42.805,6.029,13.2936,4.59966,2471.829,2017-10-08T03:35:31Z
2017-10-08T01:35:42Z,42.805,6.029,13.2935,4.59964,2471.866,2017-10-08T03:37:06Z
2017-10-08T01:37:16Z,42.805,6.029,13.2939,4.59964,2471.852,2017-10-08T03:38:40Z
2017-10-08T01:38:51Z,42.805,6.029,13.2935,4.59965,2471.852,2017-10-08T03:40:15Z
2017-10-08T01:40:26Z,42.805,6.029,13.2935,4.59962,2471.852,2017-10-08T03:41:50Z
2017-10-08T01:42:01Z,42.805,6.029,13.2937,4.59962,2471.866,2017-10-08T03:43:25Z
2017-10-08T01:43:36Z,42.805,6.029,13.2935,4.59962,2471.821,2017-10-08T03:45:00Z
2017-10-08T01:45:11Z,42.805,6.029,13.2938,4.59964,2471.821,2017-10-08T03:46:35Z
2017-10-08T01:46:45Z,42.805,6.029,13.2938,4.59963,2471.866,2017-10-08T03:48:09Z
2017-10-08T01:48:20Z,42.805,6.029,13.2939,4.59964,2471.866,2017-10-08T03:49:44Z
2017-10-08T01:49:55Z,42.805,6.029,13.2940,4.59964,2471.829,2017-10-08T03:51:19Z
2017-10-08T01:51:30Z,42.805,6.029,13.2939,4.59963,2471.889,2017-10-08T03:52:54Z
2017-10-08T01:53:05Z,42.805,6.029,13.2937,4.59964,2471.866,2017-10-08T03:54:29Z
2017-10-08T01:54:40Z,42.805,6.029,13.2941,4.59962,2471.844,2017-10-08T03:56:04Z
2017-10-08T01:56:14Z,42.805,6.029,13.2939,4.59963,2471.866,2017-10-08T03:57:38Z
2017-10-08T01:57:49Z,42.805,6.029,13.2937,4.59963,2471.844,2017-10-08T03:59:13Z
2017-10-08T01:59:24Z,42.805,6.029,13.2937,4.59964,2471.844,2017-10-08T04:00:48Z
2017-10-08T02:00:59Z,42.805,6.029,13.2935,4.59962,2471.866,2017-10-08T04:02:23Z
2017-10-08T02:02:34Z,42.805,6.029,13.2938,4.59962,2471.866,2017-10-08T04:03:58Z
2017-10-08T02:04:09Z,42.805,6.029,13.2938,4.59963,2471.844,2017-10-08T04:05:33Z
2017-10-08T02:05:43Z,42.805,6.029,13.2939,4.59961,2471.844,2017-10-08T04:07:07Z
2017-10-08T02:07:18Z,42.805,6.029,13.2933,4.59964,2471.866,2017-10-08T04:08:42Z
2017-10-08T02:08:53Z,42.805,6.029,13.2935,4.59964,2471.829,2017-10-08T04:10:17Z
2017-10-08T02:10:28Z,42.805,6.029,13.2939,4.59963,2471.821,2017-10-08T04:11:52Z
2017-10-08T02:12:03Z,42.805,6.029,13.2939,4.59964,2471.852,2017-10-08T04:13:27Z
2017-10-08T02:13:38Z,42.805,6.029,13.2935,4.59965,2471.866,2017-10-08T04:15:02Z
2017-10-08T02:15:12Z,42.805,6.029,13.2936,4.59964,2471.836,2017-10-08T04:16:36Z
2017-10-08T02:16:47Z,42.805,6.029,13.2933,4.59962,2471.821,2017-10-08T04:18:11Z
2017-10-08T02:18:22Z,42.805,6.029,13.2938,4.59962,2471.829,2017-10-08T04:19:46Z
2017-10-08T02:19:57Z,42.805,6.029,13.2939,4.59964,2471.866,2017-10-08T04:21:21Z
2017-10-08T02:21:32Z,42.805,6.029,13.2940,4.59963,2471.821,2017-10-08T04:22:56Z
2017-10-08T02:23:07Z,42.805,6.029,13.2939,4.59964,2471.844,2017-10-08T04:24:31Z
2017-10-08T02:24:41Z,42.805,6.029,13.2936,4.59964,2471.844,2017-10-08T04:26:05Z
2017-10-08T02:26:16Z,42.805,6.029,13.2939,4.59964,2471.852,2017-10-08T04:27:40Z
2017-10-08T02:27:51Z,42.805,6.029,13.2936,4.59963,2471.844,2017-10-08T04:29:15Z
2017-10-08T02:29:26Z,42.805,6.029,13.2937,4.59962,2471.821,2017-10-08T04:30:50Z
2017-10-08T02:31:01Z,42.805,6.029,13.2939,4.59963,2471.829,2017-10-08T04:32:25Z
2017-10-08T02:32:35Z,42.805,6.029,13.2937,4.59964,2471.844,2017-10-08T04:34:00Z
2017-10-08T02:34:10Z,42.805,6.029,13.2939,4.59963,2471.844,2017-10-08T04:35:34Z
2017-10-08T02:35:45Z,42.805,6.029,13.2939,4.59964,2471.844,2017-10-08T04:37:09Z
2017-10-08T02:37:20Z,42.805,6.029,13.2935,4.59965,2471.821,2017-10-08T04:38:44Z
2017-10-08T02:38:55Z,42.805,6.029,13.2938,4.59963,2471.799,2017-10-08T04:40:19Z
2017-10-08T02:40:30Z,42.805,6.029,13.2935,4.59965,2471.829,2017-10-08T04:41:54Z
2017-10-08T02:42:04Z,42.805,6.029,13.2938,4.59963,2471.844,2017-10-08T04:43:28Z
2017-10-08T02:43:39Z,42.805,6.029,13.2937,4.59963,2471.844,2017-10-08T04:45:03Z
2017-10-08T02:45:14Z,42.805,6.029,13.2943,4.59963,2471.829,2017-10-08T04:46:38Z
2017-10-08T02:46:49Z,42.805,6.029,13.2935,4.59967,2471.806,2017-10-08T04:48:13Z
2017-10-08T02:48:24Z,42.805,6.029,13.2943,4.59964,2471.844,2017-10-08T04:49:48Z
2017-10-08T02:49:59Z,42.805,6.029,13.2935,4.59963,2471.806,2017-10-08T04:51:23Z
2017-10-08T02:51:33Z,42.805,6.029,13.2936,4.59964,2471.829,2017-10-08T04:52:58Z
2017-10-08T02:53:08Z,42.805,6.029,13.2939,4.59964,2471.844,2017-10-08T04:54:32Z
2017-10-08T02:54:43Z,42.805,6.029,13.2939,4.59963,2471.829,2017-10-08T04:56:07Z
2017-10-08T02:56:18Z,42.805,6.029,13.2937,4.59965,2471.806,2017-10-08T04:57:42Z
2017-10-08T02:57:53Z,42.805,6.029,13.2935,4.59965,2471.866,2017-10-08T04:59:17Z
2017-10-08T02:59:28Z,42.805,6.029,13.2937,4.59964,2471.829,2017-10-08T05:00:52Z
2017-10-08T03:01:02Z,42.805,6.029,13.2938,4.59964,2471.844,2017-10-08T05:02:26Z
2017-10-08T03:02:37Z,42.805,6.029,13.2937,4.59963,2471.844,2017-10-08T05:04:01Z
2017-10-08T03:04:12Z,42.805,6.029,13.2939,4.59964,2471.821,2017-10-08T05:05:36Z
2017-10-08T03:05:47Z,42.805,6.029,13.2934,4.59964,2471.844,2017-10-08T05:07:11Z
2017-10-08T03:07:22Z,42.805,6.029,13.2937,4.59964,2471.806,2017-10-08T05:08:46Z
2017-10-08T03:08:57Z,42.805,6.029,13.2936,4.59966,2471.806,2017-10-08T05:10:21Z
2017-10-08T03:10:31Z,42.805,6.029,13.2937,4.59964,2471.829,2017-10-08T05:11:55Z
2017-10-08T03:12:06Z,42.805,6.029,13.2936,4.59964,2471.821,2017-10-08T05:13:30Z
2017-10-08T03:13:41Z,42.805,6.029,13.2934,4.59962,2471.844,2017-10-08T05:15:05Z
2017-10-08T03:15:16Z,42.805,6.029,13.2938,4.59961,2471.821,2017-10-08T05:16:40Z
2017-10-08T03:16:51Z,42.805,6.029,13.2940,4.59962,2471.844,2017-10-08T05:18:15Z
2017-10-08T03:18:26Z,42.805,6.029,13.2939,4.59961,2471.844,2017-10-08T05:19:50Z
2017-10-08T03:20:00Z,42.805,6.029,13.2939,4.59964,2471.844,2017-10-08T05:21:24Z
2017-10-08T03:21:35Z,42.805,6.029,13.2935,4.59963,2471.829,2017-10-08T05:22:59Z
2017-10-08T03:23:10Z,42.805,6.029,13.2938,4.59962,2471.844,2017-10-08T05:24:34Z
2017-10-08T03:24:45Z,42.805,6.029,13.2939,4.59963,2471.852,2017-10-08T05:26:09Z
2017-10-08T03:26:20Z,42.805,6.029,13.2937,4.59963,2471.821,2017-10-08T05:27:44Z
2017-10-08T03:27:55Z,42.805,6.029,13.2934,4.59964,2471.866,2017-10-08T05:29:19Z
2017-10-08T03:29:29Z,42.805,6.029,13.2934,4.59964,2471.829,2017-10-08T05:30:53Z
2017-10-08T03:31:04Z,42.805,6.029,13.2939,4.59963,2471.829,2017-10-08T05:32:28Z
2017-10-08T03:32:39Z,42.805,6.029,13.2938,4.59962,2471.844,2017-10-08T05:34:03Z
2017-10-08T03:34:14Z,42.805,6.029,13.2938,4.59963,2471.844,2017-10-08T05:35:38Z
2017-10-08T03:35:49Z,42.805,6.029,13.2940,4.59962,2471.821,2017-10-08T05:37:13Z
2017-10-08T03:37:24Z,42.805,6.029,13.2940,4.59964,2471.829,2017-10-08T05:38:48Z
2017-10-08T03:38:58Z,42.805,6.029,13.2939,4.59964,2471.829,2017-10-08T05:40:22Z
2017-10-08T03:40:33Z,42.805,6.029,13.2939,4.59964,2471.806,2017-10-08T05:41:57Z
2017-10-08T03:42:08Z,42.805,6.029,13.2935,4.59967,2471.844,2017-10-08T05:43:32Z
2017-10-08T03:43:43Z,42.805,6.029,13.2939,4.59963,2471.821,2017-10-08T05:45:07Z
2017-10-08T03:45:18Z,42.805,6.029,13.2935,4.59964,2471.844,2017-10-08T05:46:42Z
2017-10-08T03:46:53Z,42.805,6.029,13.2939,4.59965,2471.852,2017-10-08T05:48:17Z
2017-10-08T03:48:27Z,42.805,6.029,13.2939,4.59963,2471.806,2017-10-08T05:49:51Z
2017-10-08T03:50:02Z,42.805,6.029,13.2938,4.59962,2471.829,2017-10-08T05:51:26Z
2017-10-08T03:51:37Z,42.805,6.029,13.2939,4.59963,2471.844,2017-10-08T05:53:01Z
2017-10-08T03:53:12Z,42.805,6.029,13.2943,4.59964,2471.829,2017-10-08T05:54:36Z
2017-10-08T03:54:47Z,42.805,6.029,13.2939,4.59965,2471.844,2017-10-08T05:56:11Z
2017-10-08T03:56:22Z,42.805,6.029,13.2935,4.59964,2471.866,2017-10-08T05:57:46Z
2017-10-08T03:57:56Z,42.805,6.029,13.2938,4.59962,2471.829,2017-10-08T05:59:20Z
2017-10-08T03:59:31Z,42.805,6.029,13.2939,4.59964,2471.806,2017-10-08T06:00:55Z
2017-10-08T04:01:06Z,42.805,6.029,13.2941,4.59962,2471.829,2017-10-08T06:02:30Z
2017-10-08T04:02:41Z,42.805,6.029,13.2941,4.59964,2471.829,2017-10-08T06:04:05Z
2017-10-08T04:04:16Z,42.805,6.029,13.2939,4.59964,2471.866,2017-10-08T06:05:40Z
2017-10-08T04:05:51Z,42.805,6.029,13.2938,4.59964,2471.866,2017-10-08T06:07:15Z
2017-10-08T04:07:25Z,42.805,6.029,13.2937,4.59966,2471.889,2017-10-08T06:08:49Z
2017-10-08T04:09:00Z,42.805,6.029,13.2940,4.59967,2471.852,2017-10-08T06:10:24Z
2017-10-08T04:10:35Z,42.805,6.029,13.2939,4.59966,2471.866,2017-10-08T06:11:59Z
2017-10-08T04:12:10Z,42.805,6.029,13.2939,4.59964,2471.866,2017-10-08T06:13:34Z
2017-10-08T04:13:45Z,42.805,6.029,13.2937,4.59965,2471.852,2017-10-08T06:15:09Z
2017-10-08T04:15:20Z,42.805,6.029,13.2941,4.59963,2471.852,2017-10-08T06:16:44Z
2017-10-08T04:16:54Z,42.805,6.029,13.2939,4.59963,2471.852,2017-10-08T06:18:18Z
2017-10-08T04:18:29Z,42.805,6.029,13.2937,4.59964,2471.866,2017-10-08T06:19:53Z
2017-10-08T04:20:04Z,42.805,6.029,13.2941,4.59961,2471.852,2017-10-08T06:21:28Z
2017-10-08T04:21:39Z,42.805,6.029,13.2935,4.59961,2471.874,2017-10-08T06:23:03Z
2017-10-08T04:23:14Z,42.805,6.029,13.2934,4.59962,2471.852,2017-10-08T06:24:38Z
2017-10-08T04:24:49Z,42.805,6.029,13.2938,4.59963,2471.844,2017-10-08T06:26:13Z
2017-10-08T04:26:23Z,42.805,6.029,13.2938,4.59963,2471.866,2017-10-08T06:27:47Z
2017-10-08T04:27:58Z,42.805,6.029,13.2942,4.59966,2471.844,2017-10-08T06:29:22Z
2017-10-08T04:29:33Z,42.805,6.029,13.2941,4.59962,2471.889,2017-10-08T06:30:57Z
2017-10-08T04:31:08Z,42.805,6.029,13.2941,4.59962,2471.829,2017-10-08T06:32:32Z
2017-10-08T04:32:43Z,42.805,6.029,13.2938,4.59964,2471.852,2017-10-08T06:34:07Z
2017-10-08T04:34:18Z,42.805,6.029,13.2935,4.59964,2471.844,2017-10-08T06:35:42Z
2017-10-08T04:35:52Z,42.805,6.029,13.2936,4.59964,2471.866,2017-10-08T06:37:16Z
2017-10-08T04:37:27Z,42.805,6.029,13.2935,4.59962,2471.889,2017-10-08T06:38:51Z
2017-10-08T04:39:02Z,42.805,6.029,13.2938,4.59961,2471.852,2017-10-08T06:40:26Z
2017-10-08T04:40:37Z,42.805,6.029,13.2939,4.59964,2471.866,2017-10-08T06:42:01Z
2017-10-08T04:42:12Z,42.805,6.029,13.2939,4.59962,2471.852,2017-10-08T06:43:36Z
2017-10-08T04:43:46Z,42.805,6.029,13.2936,4.59965,2471.852,2017-10-08T06:45:11Z
2017-10-08T04:45:21Z,42.805,6.029,13.2938,4.59964,2471.852,2017-10-08T06:46:45Z
2017-10-08T04:46:56Z,42.805,6.029,13.2935,4.59966,2471.912,2017-10-08T06:48:20Z
2017-10-08T04:48:31Z,42.805,6.029,13.2936,4.59962,2471.889,2017-10-08T06:49:55Z
2017-10-08T04:50:06Z,42.805,6.029,13.2939,4.59964,2471.889,2017-10-08T06:51:30Z
2017-10-08T04:51:41Z,42.805,6.029,13.2939,4.59964,2471.874,2017-10-08T06:53:05Z
2017-10-08T04:53:15Z,42.805,6.029,13.2936,4.59963,2471.866,2017-10-08T06:54:40Z
2017-10-08T04:54:50Z,42.805,6.029,13.2939,4.59964,2471.874,2017-10-08T06:56:14Z
2017-10-08T04:56:25Z,42.805,6.029,13.2938,4.59964,2471.852,2017-10-08T06:57:49Z
2017-10-08T04:58:00Z,42.805,6.029,13.2939,4.59963,2471.874,2017-10-08T06:59:24Z
2017-10-08T04:59:35Z,42.805,6.029,13.2941,4.59965,2471.897,2017-10-08T07:00:59Z
2017-10-08T05:01:10Z,42.805,6.029,13.2937,4.59966,2471.866,2017-10-08T07:02:34Z
2017-10-08T05:02:44Z,42.805,6.029,13.2936,4.59964,2471.874,2017-10-08T07:04:09Z
2017-10-08T05:04:19Z,42.805,6.029,13.2939,4.59966,2471.912,2017-10-08T07:05:43Z
2017-10-08T05:05:54Z,42.805,6.029,13.2939,4.59964,2471.912,2017-10-08T07:07:18Z
2017-10-08T05:07:29Z,42.805,6.029,13.2940,4.59962,2471.866,2017-10-08T07:08:53Z
2017-10-08T05:09:04Z,42.805,6.029,13.2940,4.59963,2471.874,2017-10-08T07:10:28Z
2017-10-08T05:10:39Z,42.805,6.029,13.2934,4.59964,2471.889,2017-10-08T07:12:03Z
2017-10-08T05:12:13Z,42.805,6.029,13.2939,4.59970,2471.889,2017-10-08T07:13:37Z
2017-10-08T05:13:48Z,42.805,6.029,13.2935,4.59962,2471.889,2017-10-08T07:15:12Z
2017-10-08T05:15:23Z,42.805,6.029,13.2937,4.59964,2471.912,2017-10-08T07:16:47Z
2017-10-08T05:16:58Z,42.805,6.029,13.2939,4.59966,2471.889,2017-10-08T07:18:22Z
2017-10-08T05:18:33Z,42.805,6.029,13.2938,4.59963,2471.934,2017-10-08T07:19:57Z
2017-10-08T05:20:08Z,42.805,6.029,13.2942,4.59966,2471.912,2017-10-08T07:21:32Z
2017-10-08T05:21:42Z,42.805,6.029,13.2939,4.59964,2471.889,2017-10-08T07:23:06Z
2017-10-08T05:23:17Z,42.805,6.029,13.2935,4.59968,2471.934,2017-10-08T07:24:41Z
2017-10-08T05:24:52Z,42.805,6.029,13.2941,4.59964,2471.889,2017-10-08T07:26:16Z
2017-10-08T05:26:27Z,42.805,6.029,13.2935,4.59966,2471.919,2017-10-08T07:27:51Z
2017-10-08T05:28:02Z,42.805,6.029,13.2935,4.59963,2471.912,2017-10-08T07:29:26Z
2017-10-08T05:29:37Z,42.805,6.029,13.2939,4.59962,2471.934,2017-10-08T07:31:01Z
2017-10-08T05:31:11Z,42.805,6.029,13.2940,4.59964,2471.927,2017-10-08T07:32:35Z
2017-10-08T05:32:46Z,42.805,6.029,13.2934,4.59965,2471.897,2017-10-08T07:34:10Z
2017-10-08T05:34:21Z,42.805,6.029,13.2933,4.59963,2471.964,2017-10-08T07:35:45Z
2017-10-08T05:35:56Z,42.805,6.029,13.2939,4.59963,2471.897,2017-10-08T07:37:20Z
2017-10-08T05:37:31Z,42.805,6.029,13.2939,4.59963,2471.897,2017-10-08T07:38:55Z
2017-10-08T05:39:06Z,42.805,6.029,13.2941,4.59964,2471.912,2017-10-08T07:40:30Z
2017-10-08T05:40:40Z,42.805,6.029,13.2936,4.59964,2471.919,2017-10-08T07:42:04Z
2017-10-08T05:42:15Z,42.805,6.029,13.2939,4.59964,2471.934,2017-10-08T07:43:39Z
2017-10-08T05:43:50Z,42.805,6.029,13.2938,4.59964,2471.874,2017-10-08T07:45:14Z
2017-10-08T05:45:25Z,42.805,6.029,13.2939,4.59964,2471.919,2017-10-08T07:46:49Z
2017-10-08T05:47:00Z,42.805,6.029,13.2940,4.59965,2471.942,2017-10-08T07:48:24Z
2017-10-08T05:48:35Z,42.805,6.029,13.2937,4.59964,2471.919,2017-10-08T07:49:59Z
2017-10-08T05:50:09Z,42.805,6.029,13.2940,4.59967,2471.912,2017-10-08T07:51:33Z
2017-10-08T05:51:44Z,42.805,6.029,13.2940,4.59965,2471.897,2017-10-08T07:53:08Z
2017-10-08T05:53:19Z,42.805,6.029,13.2936,4.59966,2471.957,2017-10-08T07:54:43Z
2017-10-08T05:54:54Z,42.805,6.029,13.2939,4.59965,2471.934,2017-10-08T07:56:18Z
2017-10-08T05:56:29Z,42.805,6.029,13.2933,4.59963,2471.957,2017-10-08T07:57:53Z
2017-10-08T05:58:04Z,42.805,6.029,13.2936,4.59962,2471.934,2017-10-08T07:59:28Z
2017-10-08T05:59:38Z,42.805,6.029,13.2935,4.59964,2471.934,2017-10-08T08:01:02Z
2017-10-08T06:01:13Z,42.805,6.029,13.2935,4.59967,2471.979,2017-10-08T08:02:37Z
2017-10-08T06:02:48Z,42.805,6.029,13.2936,4.59964,2471.934,2017-10-08T08:04:12Z
2017-10-08T06:04:23Z,42.805,6.029,13.2938,4.59967,2471.979,2017-10-08T08:05:47Z
2017-10-08T06:05:58Z,42.805,6.029,13.2938,4.59964,2471.979,2017-10-08T08:07:22Z
2017-10-08T06:07:33Z,42.805,6.029,13.2935,4.59964,2471.964,2017-10-08T08:08:57Z
2017-10-08T06:09:07Z,42.805,6.029,13.2940,4.59964,2471.957,2017-10-08T08:10:31Z
2017-10-08T06:10:42Z,42.805,6.029,13.2939,4.59965,2471.934,2017-10-08T08:12:06Z
2017-10-08T06:12:17Z,42.805,6.029,13.2939,4.59965,2471.964,2017-10-08T08:13:41Z
2017-10-08T06:13:52Z,42.805,6.029,13.2940,4.59965,2471.979,2017-10-08T08:15:16Z
2017-10-08T06:15:27Z,42.805,6.029,13.2940,4.59964,2471.987,2017-10-08T08:16:51Z
2017-10-08T06:17:02Z,42.805,6.029,13.2940,4.59970,2471.979,2017-10-08T08:18:26Z
2017-10-08T06:18:36Z,42.805,6.029,13.2935,4.59965,2471.979,2017-10-08T08:20:00Z
2017-10-08T06:20:11Z,42.805,6.029,13.2940,4.59965,2471.979,2017-10-08T08:21:35Z
2017-10-08T06:21:46Z,42.805,6.029,13.2940,4.59964,2472.002,2017-10-08T08:23:10Z
2017-10-08T06:23:21Z,42.805,6.029,13.2939,4.59967,2471.964,2017-10-08T08:24:45Z
2017-10-08T06:24:56Z,42.805,6.029,13.2935,4.59967,2471.964,2017-10-08T08:26:20Z
2017-10-08T06:26:31Z,42.805,6.029,13.2939,4.59964,2471.957,2017-10-08T08:27:55Z
2017-10-08T06:28:05Z,42.805,6.029,13.2939,4.59964,2471.979,2017-10-08T08:29:29Z
2017-10-08T06:29:40Z,42.805,6.029,13.2941,4.59967,2471.987,2017-10-08T08:31:04Z
2017-10-08T06:31:15Z,42.805,6.029,13.2936,4.59966,2471.987,2017-10-08T08:32:39Z
2017-10-08T06:32:50Z,42.805,6.029,13.2939,4.59964,2471.979,2017-10-08T08:34:14Z
2017-10-08T06:34:25Z,42.805,6.029,13.2938,4.59964,2471.987,2017-10-08T08:35:49Z
2017-10-08T06:36:00Z,42.805,6.029,13.2940,4.59965,2471.957,2017-10-08T08:37:24Z
2017-10-08T06:37:34Z,42.805,6.029,13.2936,4.59964,2471.979,2017-10-08T08:38:58Z
2017-10-08T06:39:09Z,42.805,6.029,13.2939,4.59964,2471.957,2017-10-08T08:40:33Z
2017-10-08T06:40:44Z,42.805,6.029,13.2938,4.59964,2472.024,2017-10-08T08:42:08Z
2017-10-08T06:42:19Z,42.805,6.029,13.2937,4.59964,2472.002,2017-10-08T08:43:43Z
2017-10-08T06:43:54Z,42.805,6.029,13.2936,4.59964,2471.987,2017-10-08T08:45:18Z
2017-10-08T06:45:29Z,42.805,6.029,13.2939,4.59965,2472.002,2017-10-08T08:46:53Z
2017-10-08T06:47:03Z,42.805,6.029,13.2939,4.59964,2472.024,2017-10-08T08:48:27Z
2017-10-08T06:48:38Z,42.805,6.029,13.2939,4.59961,2472.002,2017-10-08T08:50:02Z
2017-10-08T06:50:13Z,42.805,6.029,13.2941,4.59962,2472.024,2017-10-08T08:51:37Z
2017-10-08T06:51:48Z,42.805,6.029,13.2933,4.59963,2472.002,2017-10-08T08:53:12Z
2017-10-08T06:53:23Z,42.805,6.029,13.2936,4.59962,2472.024,2017-10-08T08:54:47Z
2017-10-08T06:54:58Z,42.805,6.029,13.2939,4.59963,2472.024,2017-10-08T08:56:22Z
2017-10-08T06:56:32Z,42.805,6.029,13.2935,4.59964,2471.987,2017-10-08T08:57:56Z
2017-10-08T06:58:07Z,42.805,6.029,13.2939,4.59964,2472.01,2017-10-08T08:59:31Z
2017-10-08T06:59:42Z,42.805,6.029,13.2935,4.59964,2472.01,2017-10-08T09:01:06Z
2017-10-08T07:01:17Z,42.805,6.029,13.2940,4.59968,2472.024,2017-10-08T09:02:41Z
2017-10-08T07:02:52Z,42.805,6.029,13.2939,4.59964,2472.01,2017-10-08T09:04:16Z
2017-10-08T07:04:26Z,42.805,6.029,13.2936,4.59964,2472.032,2017-10-08T09:05:51Z
2017-10-08T07:06:01Z,42.805,6.029,13.2935,4.59963,2472.024,2017-10-08T09:07:25Z
2017-10-08T07:07:36Z,42.805,6.029,13.2939,4.59963,2472.032,2017-10-08T09:09:00Z
2017-10-08T07:09:11Z,42.805,6.029,13.2935,4.59964,2472.039,2017-10-08T09:10:35Z
2017-10-08T07:10:46Z,42.805,6.029,13.2943,4.59966,2472.01,2017-10-08T09:12:10Z
2017-10-08T07:12:21Z,42.805,6.029,13.2937,4.59964,2472.047,2017-10-08T09:13:45Z
2017-10-08T07:13:55Z,42.805,6.029,13.2933,4.59963,2472.01,2017-10-08T09:15:19Z
2017-10-08T07:15:30Z,42.805,6.029,13.2938,4.59962,2472.01,2017-10-08T09:16:54Z
2017-10-08T07:17:05Z,42.805,6.029,13.2939,4.59963,2472.024,2017-10-08T09:18:29Z
2017-10-08T07:18:40Z,42.805,6.029,13.2933,4.59965,2472.047,2017-10-08T09:20:04Z
2017-10-08T07:20:15Z,42.805,6.029,13.2939,4.59965,2472.069,2017-10-08T09:21:39Z
2017-10-08T07:21:50Z,42.805,6.029,13.2940,4.59965,2472.01,2017-10-08T09:23:14Z
2017-10-08T07:23:24Z,42.805,6.029,13.2939,4.59964,2472.024,2017-10-08T09:24:48Z
2017-10-08T07:24:59Z,42.805,6.029,13.2937,4.59964,2472.047,2017-10-08T09:26:23Z
2017-10-08T07:26:34Z,42.805,6.029,13.2936,4.59964,2472.047,2017-10-08T09:27:58Z
2017-10-08T07:28:09Z,42.805,6.029,13.2943,4.59965,2472.047,2017-10-08T09:29:33Z
2017-10-08T07:29:44Z,42.805,6.029,13.2939,4.59963,2472.024,2017-10-08T09:31:08Z
2017-10-08T07:31:19Z,42.805,6.029,13.2941,4.59964,2472.047,2017-10-08T09:32:43Z
2017-10-08T07:32:53Z,42.805,6.029,13.2940,4.59964,2472.032,2017-10-08T09:34:17Z
2017-10-08T07:34:28Z,42.805,6.029,13.2940,4.59964,2472.047,2017-10-08T09:35:52Z
2017-10-08T07:36:03Z,42.805,6.029,13.2940,4.59965,2472.047,2017-10-08T09:37:27Z
2017-10-08T07:37:38Z,42.805,6.029,13.2935,4.59964,2472.047,2017-10-08T09:39:02Z
2017-10-08T07:39:13Z,42.805,6.029,13.2943,4.59964,2472.047,2017-10-08T09:40:37Z
2017-10-08T07:40:48Z,42.805,6.029,13.2935,4.59964,2472.024,2017-10-08T09:42:12Z
2017-10-08T07:42:22Z,42.805,6.029,13.2940,4.59964,2472.032,2017-10-08T09:43:46Z
2017-10-08T07:43:57Z,42.805,6.029,13.2938,4.59964,2472.055,2017-10-08T09:45:21Z
2017-10-08T07:45:32Z,42.805,6.029,13.2935,4.59964,2472.055,2017-10-08T09:46:56Z